1396224031252,21.1096
1396224091252,21.0799
1396224151252,21.0051
1396224211252,21.0424
1396224271252,21.0096
1396224331252,21.0485
1396224391252,21.0019
1396224451252,21.0362
1396224511252,20.9349
1396224571252,20.9979
1396224631252,20.9826
1396224691252,20.9643
1396224751252,21.0184
1396224811252,21.0017
1396224871252,21.0030
1396224931252,20.9808
1396224991252,20.9168
1396225051252,20.9001
1396225111252,20.9003
1396225171252,20.8838
1396225231252,20.8447
1396225291252,20.9708
1396225351252,20.9525
1396225411252,20.9389
1396225471252,20.9871
1396225531252,20.9995
1396225591252,21.0234
1396225651252,21.0720
1396225711252,21.1926
1396225771252,21.1505
1396225831252,21.1232
1396225891252,21.0935
1396225951252,21.0783
1396226011252,21.1199
1396226071252,20.9910
1396226131252,21.0186
1396226191252,21.0532
1396226251252,20.9529
1396226311252,21.0672
1396226371252,21.0289
1396226431252,21.0483
1396226491252,21.0870
1396226551252,21.0488
1396226611252,21.0434
1396226671252,21.0492
1396226731252,20.9991
1396226791252,21.0167
1396226851252,21.0090
1396226911252,20.9586
1396226971252,20.9975
1396227031252,20.9969
1396227091252,20.9871
1396227151252,21.0444
1396227211252,20.9808
1396227271252,21.0355
1396227331252,20.9730
1396227391252,20.9287
1396227451252,20.9364
1396227511252,20.9718
1396227571252,20.9760
1396227631263,21.0221
1396227691264,20.9219
1396227751264,20.8821
1396227811264,20.9562
1396227871264,20.9275
1396227931264,20.8902
1396227991264,20.9099
1396228051264,20.9827
1396228111264,20.9772
1396228171264,21.0423
1396228231264,20.9787
1396228291264,20.9958
1396228351264,20.9896
1396228411264,21.0284
1396228471264,20.9578
1396228531264,20.8580
1396228591264,20.9103
1396228651264,20.8499
1396228711264,20.8625
1396228771264,20.8312
1396228831263,20.9423
1396228891263,20.9149
1396228951263,20.8752
1396229011263,20.9590
1396229071264,20.8632
1396229131264,20.9761
1396229191264,20.8790
1396229251264,20.8859
1396229311264,20.9458
1396229371264,20.9340
1396229431264,20.8596
1396229491264,20.8674
1396229551264,20.9184
1396229611264,20.8889
1396229671264,20.8320
1396229731264,20.8358
1396229791264,20.7569
1396229851264,20.8666
1396229911264,20.8757
1396229971264,21.0096
1396230031264,20.9704
1396230091264,20.8493
1396230151264,20.7311
1396230211263,20.9369
1396230271263,20.8867
1396230331263,20.8169
1396230391264,20.8738
1396230451264,20.8755
1396230511264,20.8813
1396230571264,20.8021
1396230631264,20.7938
1396230691264,20.8027
1396230751264,20.7418
1396230811264,20.8277
1396230871264,20.8954
1396230931264,20.7768
1396230991264,20.8467
1396231051264,20.7668
1396231111264,20.7971
1396231171264,20.7384
1396231231275,20.7932
1396231291275,20.7143
1396231351275,20.7464
1396231411275,20.8438
1396231471275,20.7532
1396231531275,20.7726
1396231591275,20.7677
1396231651275,20.7906
1396231711275,20.7486
1396231771275,20.7208
1396231831275,20.8011
1396231891275,20.7405
1396231951275,20.7940
1396232011275,20.7774
1396232071275,20.8986
1396232131275,20.8785
1396232191275,20.8505
1396232251275,20.8970
1396232311275,20.9692
1396232371275,21.0446
1396232431275,20.8912
1396232491275,20.9636
1396232551275,20.9306
1396232611275,20.9954
1396232671275,20.9642
1396232731275,20.8973
1396232791275,20.8225
1396232851275,20.9466
1396232911275,20.9280
1396232971275,20.8612
1396233031275,20.8662
1396233091275,20.8749
1396233151275,20.8904
1396233211275,20.8357
1396233271275,20.8491
1396233331275,20.8230
1396233391275,20.8334
1396233451275,20.8420
1396233511275,20.8959
1396233571275,20.8869
1396233631275,20.8369
1396233691275,20.8379
1396233751275,20.8229
1396233811275,20.8622
1396233871275,20.8531
1396233931275,20.8208
1396233991275,20.9229
1396234051275,20.8704
1396234111275,20.8663
1396234171275,20.8279
1396234231275,20.8422
1396234291275,20.7946
1396234351275,20.8385
1396234411275,20.7890
1396234471275,20.8408
1396234531275,20.8225
1396234591275,20.7825
1396234651275,20.8423
1396234711275,20.8925
1396234771275,20.8227
1396234831286,20.8393
1396234891286,20.8226
1396234951286,20.8941
1396235011285,20.8701
1396235071285,20.8884
1396235131285,20.8722
1396235191285,20.9330
1396235251285,20.9282
1396235311285,20.9224
1396235371285,20.8908
1396235431285,20.8657
1396235491286,20.9632
1396235551286,20.9520
1396235611286,21.0447
1396235671286,21.1208
1396235731285,21.1266
1396235791285,21.1866
1396235851286,21.2072
1396235911286,21.1322
1396235971286,21.0869
1396236031286,21.0592
1396236091286,21.1198
1396236151286,21.0376
1396236211286,20.9817
1396236271286,20.9721
1396236331286,21.0270
1396236391285,20.9281
1396236451285,20.8946
1396236511285,20.9462
1396236571285,20.9309
1396236631285,20.9628
1396236691285,20.8616
1396236751285,20.9002
1396236811285,20.8778
1396236871286,20.8555
1396236931286,20.7511
1396236991286,20.8618
1396237051285,20.7741
1396237111285,20.7328
1396237171286,20.7939
1396237231286,20.9306
1396237291286,20.7998
1396237351286,20.8475
1396237411286,20.8221
1396237471286,20.7769
1396237531286,20.7738
1396237591286,20.8289
1396237651286,20.8354
1396237711285,20.8081
1396237771285,20.8220
1396237831285,20.8398
1396237891285,20.8260
1396237951285,20.7936
1396238011285,20.8128
1396238071285,20.8856
1396238131285,20.8461
1396238191286,20.8129
1396238251286,20.7997
1396238311286,20.8700
1396238371286,20.9507
1396238431296,20.9095
1396238491296,20.9262
1396238551296,20.8319
1396238611296,20.8373
1396238671296,20.8581
1396238731296,20.8937
1396238791296,20.9103
1396238851296,20.9522
1396238911296,20.9548
1396238971296,20.9518
1396239031296,20.9619
1396239091296,20.9954
1396239151296,20.9382
1396239211296,20.9921
1396239271296,21.0302
1396239331296,20.9604
1396239391296,20.9810
1396239451296,21.0077
1396239511296,20.9869
1396239571296,20.9559
1396239631296,20.9459
1396239691296,20.9769
1396239751296,21.0059
1396239811296,20.9578
1396239871296,20.9777
1396239931296,20.9878
1396239991296,21.0029
1396240051296,20.9692
1396240111296,21.0084
1396240171296,21.0116
1396240231296,21.0428
1396240291296,21.0190
1396240351296,21.0015
1396240411296,20.9580
1396240471296,21.0675
1396240531296,20.9598
1396240591296,20.9713
1396240651296,20.9443
1396240711296,20.9420
1396240771296,20.9541
1396240831296,20.9397
1396240891296,20.8628
1396240951296,20.9133
1396241011296,20.9615
1396241071296,20.9299
1396241131296,20.8959
1396241191296,20.8587
1396241251296,20.8652
1396241311296,20.8399
1396241371296,20.8659
1396241431296,20.9840
1396241491296,20.8663
1396241551296,20.8710
1396241611296,20.8630
1396241671296,20.8657
1396241731296,20.7663
1396241791296,20.8952
1396241851296,20.8757
1396241911296,20.8954
1396241971296,20.8491
1396242031307,20.8672
1396242091307,20.8467
1396242151307,20.7684
1396242211307,20.8115
1396242271307,20.8175
1396242331307,20.8291
1396242391307,20.8611
1396242451307,20.7823
1396242511307,20.7861
1396242571307,20.8189
1396242631307,20.7441
1396242691307,20.7769
1396242751307,20.7025
1396242811307,20.8014
1396242871307,20.8033
1396242931307,20.8359
1396242991307,20.6529
1396243051307,20.8121
1396243111307,20.8809
1396243171307,20.8226
1396243231307,20.8300
1396243291307,20.8143
1396243351307,20.8425
1396243411307,20.7667
1396243471307,20.8462
1396243531307,20.8752
1396243591307,20.7642
1396243651307,20.8123
1396243711307,20.7817
1396243771307,20.8205
1396243831307,20.6798
1396243891307,20.7571
1396243951307,20.8539
1396244011307,20.8764
1396244071307,20.8061
1396244131307,20.7528
1396244191307,20.8364
1396244251307,20.7968
1396244311307,20.8089
1396244371307,20.8061
1396244431307,20.7920
1396244491307,20.7891
1396244551307,20.7301
1396244611307,20.8298
1396244671307,20.7296
1396244731307,20.8299
1396244791307,20.8416
1396244851307,20.6216
1396244911307,20.8311
1396244971307,20.7535
1396245031307,20.8826
1396245091307,20.7875
1396245151307,20.8463
1396245211307,20.8432
1396245271307,20.8091
1396245331307,20.7659
1396245391307,20.7496
1396245451307,20.8165
1396245511307,20.7920
1396245571307,20.9007
1396245631318,20.7099
1396245691318,20.8050
1396245751318,20.8758
1396245811318,20.7844
1396245871318,20.7537
1396245931318,20.8063
1396245991318,20.7452
1396246051318,20.8055
1396246111318,20.8335
1396246171318,20.7922
1396246231318,20.6815
1396246291318,20.7896
1396246351318,20.7415
1396246411318,20.7486
1396246471318,20.8393
1396246531318,20.7253
1396246591318,20.7155
1396246651318,20.7912
1396246711318,20.7463
1396246771318,20.8492
1396246831318,20.8677
1396246891318,20.9456
1396246951318,20.8793
1396247011318,20.8525
1396247071318,20.7520
1396247131318,20.7993
1396247191318,20.7734
1396247251318,20.7661
1396247311318,20.8388
1396247371318,20.8077
1396247431318,20.8264
1396247491318,20.7825
1396247551318,20.7347
1396247611318,20.7693
1396247671318,20.8092
1396247731318,20.5964
1396247791318,20.8586
1396247851318,20.8027
1396247911318,20.8023
1396247971318,20.8169
1396248031318,20.7929
1396248091318,20.7418
1396248151318,20.8237
1396248211318,20.8451
1396248271318,20.8004
1396248331318,20.7764
1396248391318,20.7956
1396248451318,20.7984
1396248511318,20.7991
1396248571318,20.8078
1396248631318,20.8528
1396248691318,20.8790
1396248751318,20.8863
1396248811318,20.8212
1396248871318,20.8001
1396248931318,20.8157
1396248991318,20.8085
1396249051318,20.8297
1396249111318,20.7455
1396249171318,20.8771
1396249231328,20.7959
1396249291328,20.7584
1396249351328,20.8241
1396249411328,20.8247
1396249471328,20.7449
1396249531328,20.7495
1396249591328,20.8370
1396249651328,20.8419
1396249711328,20.7878
1396249771328,20.7866
1396249831328,20.8076
1396249891328,20.8423
1396249951328,20.8216
1396250011328,20.8182
1396250071328,20.7137
1396250131328,20.7648
1396250191328,20.8595
1396250251328,20.7487
1396250311328,20.7669
1396250371328,20.7384
1396250431328,20.8298
1396250491328,20.8487
1396250551328,20.7895
1396250611328,20.9454
1396250671328,20.9056
1396250731328,20.8925
1396250791328,20.8542
1396250851328,20.8688
1396250911328,20.8022
1396250971328,20.8655
1396251031328,20.8327
1396251091328,20.8626
1396251151328,20.8473
1396251211328,20.7828
1396251271328,20.8046
1396251331328,20.7421
1396251391328,20.8345
1396251451328,20.7844
1396251511328,20.8600
1396251571328,20.8615
1396251631328,20.8602
1396251691328,20.7954
1396251751328,20.7979
1396251811328,20.7991
1396251871328,20.8526
1396251931328,20.8677
1396251991328,21.0134
1396252051328,20.9111
1396252111328,20.9244
1396252171328,20.8884
1396252231328,20.9043
1396252291328,20.8885
1396252351328,20.9445
1396252411328,20.8636
1396252471328,20.8794
1396252531328,20.8664
1396252591328,20.9520
1396252651328,21.1856
1396252711328,21.5993
1396252771328,21.9533
1396252831339,22.1337
1396252891339,22.3857
1396252951339,22.3520
1396253011339,22.5027
1396253071339,22.5190
1396253131339,22.1369
1396253191339,22.2358
1396253251339,22.0811
1396253311339,21.9621
1396253371339,21.8633
1396253431339,21.6653
1396253491339,21.5388
1396253551339,21.6132
1396253611339,21.5872
1396253671339,21.5158
1396253731339,21.5558
1396253791339,21.5484
1396253851339,21.4582
1396253911339,21.3421
1396253971339,21.4342
1396254031339,21.3179
1396254091339,21.4171
1396254151339,21.4510
1396254211339,21.4384
1396254271339,21.4810
1396254331339,21.4776
1396254391339,21.4909
1396254451339,21.4916
1396254511339,21.5183
1396254571339,21.4874
1396254631339,21.4242
1396254691339,21.3837
1396254751339,21.3227
1396254811339,21.4096
1396254871339,21.3676
1396254931339,21.2849
1396254991339,21.2952
1396255051339,21.2746
1396255111339,21.2972
1396255171339,21.2325
1396255231339,21.2236
1396255291339,21.1557
1396255351339,21.2277
1396255411339,21.0983
1396255471339,21.1883
1396255531339,21.0957
1396255591339,21.0806
1396255651339,21.1545
1396255711339,21.0606
1396255771339,21.0522
1396255831339,21.0639
1396255891339,21.0823
1396255951339,21.0542
1396256011339,21.0758
1396256071339,20.9928
1396256131339,21.0124
1396256191339,20.9824
1396256251339,21.0943
1396256311339,21.0917
1396256371339,21.0566
1396256431349,21.0025
1396256491349,21.0012
1396256551349,20.9760
1396256611349,20.9757
1396256671349,21.0292
1396256731349,20.9814
1396256791349,20.9411
1396256851349,20.9677
1396256911349,20.9511
1396256971349,20.9613
1396257031349,20.9335
1396257091349,20.8876
1396257151349,20.9829
1396257211349,21.0394
1396257271349,20.9042
1396257331349,20.9265
1396257391349,20.8728
1396257451349,20.8492
1396257511349,20.8583
1396257571349,20.8929
1396257631349,20.8290
1396257691349,20.7935
1396257751349,20.9137
1396257811349,20.8941
1396257871349,20.9105
1396257931349,20.8179
1396257991349,20.8783
1396258051349,20.8601
1396258111349,20.8389
1396258171349,20.9502
1396258231349,20.9385
1396258291349,20.8459
1396258351349,20.8153
1396258411349,20.8686
1396258471349,20.8981
1396258531349,20.8276
1396258591349,20.8842
1396258651349,20.8246
1396258711349,20.7698
1396258771349,20.8268
1396258831349,20.8341
1396258891349,20.8702
1396258951349,20.7508
1396259011349,20.8637
1396259071349,20.8507
1396259131349,20.8079
1396259191349,20.8518
1396259251349,20.8907
1396259311349,20.8139
1396259371349,20.8338
1396259431349,20.8587
1396259491349,20.8400
1396259551349,20.9044
1396259611349,20.7535
1396259671349,20.7511
1396259731349,20.8342
1396259791349,20.7889
1396259851349,20.8094
1396259911349,20.7795
1396259971349,20.8014
1396260031360,20.8406
1396260091360,20.8601
1396260151360,20.8556
1396260211360,20.8609
1396260271360,20.8678
1396260331360,20.8312
1396260391360,20.8470
1396260451360,20.8279
1396260511360,20.8087
1396260571360,20.8461
1396260631360,20.8127
1396260691360,20.7843
1396260751360,20.7581
1396260811360,20.8152
1396260871360,20.7598
1396260931360,20.8016
1396260991360,20.7826
1396261051360,20.7319
1396261111360,20.7980
1396261171360,20.7891
1396261231360,20.8480
1396261291360,20.8265
1396261351360,20.8505
1396261411360,20.8425
1396261471360,20.8450
1396261531360,20.8473
1396261591360,20.7669
1396261651360,20.8261
1396261711360,20.8305
1396261771360,20.7774
1396261831360,20.7891
1396261891360,20.8420
1396261951360,20.7645
1396262011360,20.7794
1396262071360,20.7721
1396262131360,20.7284
1396262191360,20.7563
1396262251360,20.6799
1396262311360,20.8081
1396262371360,20.7526
1396262431360,20.7329
1396262491360,20.7820
1396262551360,20.8039
1396262611360,20.8534
1396262671360,20.8205
1396262731360,20.7473
1396262791360,20.7615
1396262851360,20.8269
1396262911360,20.9088
1396262971360,20.8046
1396263031360,20.7375
1396263091360,20.7413
1396263151360,20.8596
1396263211360,20.8197
1396263271360,20.8009
1396263331360,20.7564
1396263391360,20.7828
1396263451360,20.8317
1396263511360,20.7980
1396263571360,20.8240
1396263631370,20.8891
1396263691370,20.9225
1396263751370,20.8720
1396263811370,20.8212
1396263871370,20.8372
1396263931370,20.8102
1396263991370,20.8157
1396264051370,20.8411
1396264111370,20.8033
1396264171370,20.8633
1396264231370,20.8256
1396264291370,20.8494
1396264351370,20.8875
1396264411370,20.7356
1396264471370,20.7568
1396264531370,20.7016
1396264591370,20.7637
1396264651370,20.7945
1396264711370,20.7845
1396264771370,20.8178
1396264831370,20.7965
1396264891370,20.8027
1396264951370,20.8044
1396265011370,20.8101
1396265071370,20.7857
1396265131370,20.8302
1396265191370,20.8734
1396265251370,20.9215
1396265311370,20.8556
1396265371370,20.8306
1396265431370,20.8237
1396265491370,20.8087
1396265551370,20.8030
1396265611370,20.8040
1396265671370,20.7419
1396265731370,20.8487
1396265791370,20.8339
1396265851370,20.7735
1396265911370,20.7753
1396265971370,20.7842
1396266031370,20.8065
1396266091370,20.7639
1396266151370,20.7942
1396266211370,20.8330
1396266271370,20.8011
1396266331370,20.7521
1396266391370,20.8036
1396266451370,20.8170
1396266511370,20.8067
1396266571370,20.7832
1396266631370,20.7556
1396266691370,20.7893
1396266751370,20.7908
1396266811370,20.7844
1396266871370,20.8141
1396266931370,20.6970
1396266991370,20.7723
1396267051370,20.9936
1396267111370,20.7595
1396267171370,20.7908
1396267231381,20.7560
1396267291381,20.8206
1396267351381,20.7802
1396267411381,20.7444
1396267471381,20.7857
1396267531381,20.8360
1396267591381,20.7787
1396267651381,20.7782
1396267711381,20.7842
1396267771381,20.8613
1396267831381,20.7883
1396267891381,20.7915
1396267951381,20.7643
1396268011381,20.7732
1396268071381,20.7989
1396268131381,20.8408
1396268191381,20.7881
1396268251381,20.8918
1396268311381,20.9257
1396268371381,20.8955
1396268431381,20.8918
1396268491381,20.8613
1396268551381,20.9071
1396268611381,20.8523
1396268671381,20.8822
1396268731381,20.8450
1396268791381,20.8055
1396268851381,20.8135
1396268911381,20.7714
1396268971381,20.8373
1396269031381,20.8048
1396269091381,20.8021
1396269151381,20.8562
1396269211381,20.7567
1396269271381,20.7807
1396269331381,20.7518
1396269391381,20.7882
1396269451381,20.8015
1396269511381,20.7591
1396269571381,20.6988
1396269631381,20.7952
1396269691381,20.7136
1396269751381,20.7016
1396269811381,20.7954
1396269871381,20.7674
1396269931381,20.7866
1396269991381,20.7529
1396270051381,20.7668
1396270111381,20.8696
1396270171381,20.8145
1396270231381,20.8751
1396270291381,20.7872
1396270351381,20.9054
1396270411381,20.8803
1396270471381,20.9226
1396270531381,20.8915
1396270591381,20.9090
1396270651381,20.8854
1396270711381,20.8608
1396270771381,20.8274
1396270831384,20.9063
1396270891384,20.9339
1396270951384,20.9301
1396271011384,20.9405
1396271071384,20.8277
1396271131384,20.8588
1396271191384,20.8958
1396271251384,20.8837
1396271311384,20.9232
1396271371384,20.9267
1396271431384,21.0222
1396271491384,20.9587
1396272031384,20.9114
1396272091384,21.0548
1396272151384,20.9945
1396272211384,20.9995
1396272271384,20.9224
1396272331384,20.9569
1396272391384,20.9316
1396272451384,20.9583
1396272511384,21.0800
1396272571384,21.0082
1396272631384,20.9167
1396272691384,20.8883
1396272751384,21.0105
1396272811384,21.0896
1396272871384,21.0239
1396272931384,20.9476
1396272991384,20.9865
1396273051384,20.9196
1396273111384,20.9270
1396273171384,20.9771
1396273231384,20.9662
1396273291384,20.9523
1396273351384,21.1224
1396273411384,21.0748
1396273471384,20.9763
1396273531384,20.8707
1396273591384,20.9582
1396273651384,20.9393
1396273711384,20.8725
1396273771384,20.8453
1396273831384,20.8548
1396273891384,20.8981
1396273951384,20.8665
1396274011384,20.8942
1396274071384,20.8856
1396274131384,20.9382
1396274191384,20.9297
1396274251384,20.9122
1396274311384,20.8937
1396274371384,20.9047
1396274431394,20.8071
1396274491394,20.8454
1396274551394,20.8704
1396274611394,20.8404
1396274671394,20.8765
1396274731394,20.8806
1396274791394,20.7728
1396274851394,20.8440
1396274911394,20.8760
1396274971394,20.8485
1396275031394,20.8946
1396275091394,20.8971
1396275151394,20.8632
1396275211394,20.8207
1396275271394,20.9157
1396275331394,20.9313
1396275391394,20.9247
1396275451394,20.9787
1396275511394,20.9488
1396275571394,20.9274
1396275631394,20.9100
1396275691394,20.8632
1396275751394,20.9275
1396275811394,20.9144
1396275871394,20.9231
1396275931394,20.9533
1396275991394,20.8820
1396276051394,20.8727
1396276111394,20.8761
1396276171394,20.8307
1396276231394,20.8379
1396276291394,20.8198
1396276351394,20.8016
1396276411394,20.7774
1396276471394,20.7416
1396276531394,20.7836
1396276591394,20.7129
1396276651394,20.7690
1396276711394,20.7717
1396276771394,20.7473
1396276831394,20.6626
1396276891394,20.7345
1396276951394,20.7670
1396277011394,20.8678
1396277071394,20.7470
1396277131394,20.7689
1396277191394,20.7544
1396277251394,20.7399
1396277311394,20.7713
1396277371394,20.7308
1396277431394,20.7163
1396277491394,20.7470
1396277551394,20.8042
1396277611394,20.7929
1396277671394,20.8094
1396277731394,20.8518
1396277791394,20.8387
1396277851394,20.9037
1396277911394,20.7994
1396277971394,20.8039
1396278031404,20.8240
1396278091404,20.8917
1396278151404,20.9549
1396278211404,20.8920
1396278271404,20.8393
1396278331404,20.8261
1396278391404,20.8079
1396278451404,20.8275
1396278511404,20.8030
1396278571404,20.7975
1396278631404,21.0116
1396278691404,20.9385
1396278751404,20.8240
1396278811404,20.9218
1396278871404,20.8703
1396278931404,20.8442
1396278991404,20.8826
1396279051404,20.8518
1396279111404,20.8008
1396279171404,20.8445
1396279231404,20.8259
1396279291404,20.8356
1396279351404,20.7789
1396279411404,20.7572
1396279471404,20.8100
1396279531404,20.8004
1396279591404,20.8391
1396279651404,20.8791
1396279711404,20.7976
1396279771404,20.8942
1396279831404,20.9046
1396279891404,20.7626
1396279951404,20.8434
1396280011404,20.8516
1396280071404,20.7617
1396280131404,20.9081
1396280191404,20.8856
1396280251404,20.9578
1396280311404,20.9201
1396280371404,20.9289
1396280431404,20.9772
1396280491404,20.9988
1396280551404,21.0133
1396280611404,20.9112
1396280671404,20.9001
1396280731404,20.8913
1396280791404,20.9236
1396280851404,20.9311
1396280911404,20.8941
1396280971404,20.9207
1396281031404,20.8817
1396281091404,20.8749
1396281151404,20.8766
1396281211404,20.9176
1396281271404,21.0371
1396281331404,20.9245
1396281391404,20.8988
1396281451404,20.8816
1396281511404,20.8765
1396281571404,20.7658
1396281631414,20.9168
1396281691414,20.9206
1396281751414,20.8141
1396281811414,20.8513
1396281871414,20.8685
1396281931414,20.8395
1396281991414,20.8400
1396282051414,20.8203
1396282111414,20.7981
1396282171414,20.8451
1396282231414,20.8503
1396282291414,20.8318
1396282351414,20.7980
1396282411414,20.8092
1396282471414,20.8247
1396282531414,20.7982
1396282591414,20.8921
1396282651414,20.6965
1396282711414,20.7796
1396282771414,20.7901
1396282831414,20.7655
1396282891414,20.8459
1396282951414,20.8462
1396283011414,20.7070
1396283071414,20.7930
1396283131414,20.8118
1396283191414,20.8689
1396283251414,20.8439
1396283311414,20.7971
1396283371414,20.8605
1396283431414,20.8474
1396283491414,20.8573
1396283551414,20.7765
1396283611414,20.8240
1396283671414,20.8542
1396283731414,20.9115
1396283791414,20.8139
1396283851414,20.8442
1396283911414,20.7751
1396283971414,20.8142
1396284031414,20.7628
1396284091414,20.9005
1396284151414,20.8926
1396284211414,20.8156
1396284271414,20.8627
1396284331414,20.8345
1396284391414,20.8809
1396284451414,20.9030
1396284511414,20.8383
1396284571414,20.7981
1396284631414,20.8286
1396284691414,20.8582
1396284751414,20.7611
1396284811414,20.8696
1396284871414,20.8023
1396284931414,20.7579
1396284991414,20.7957
1396285051414,20.8074
1396285111414,20.8188
1396285171414,20.8606
1396285231424,20.8340
1396285291424,20.8194
1396285351424,20.8843
1396285411424,20.7873
1396285471424,20.8042
1396285531424,20.7863
1396285591424,20.8097
1396285651424,20.8029
1396285711424,20.8555
1396285771424,20.7912
1396285831424,20.8387
1396285891424,20.8574
1396285951424,20.8528
1396286011424,20.8528
1396286071424,20.8020
1396286131424,20.8377
1396286191424,20.7928
1396286251424,20.8174
1396286311424,20.8620
1396286371424,20.8372
1396286431424,20.8307
1396286491424,20.7888
1396286551424,20.8536
1396286611424,20.7608
1396286671424,20.8924
1396286731424,20.8595
1396286791424,20.8601
1396286851424,20.8574
1396286911424,20.8244
1396286971424,20.9612
1396287031424,20.8216
1396287091424,20.8947
1396287151424,20.7861
1396287211424,20.8460
1396287271424,20.8349
1396287331424,20.8335
1396287391424,20.7831
1396287451424,20.8230
1396287511424,20.8597
1396287571424,20.7333
1396287631424,20.8277
1396287691424,20.8238
1396287751424,20.7472
1396287811424,20.8426
1396287871424,20.8735
1396287931424,20.8956
1396287991424,20.8254
1396288051424,20.7621
1396288111424,20.7843
1396288171424,20.7866
1396288231424,20.8288
1396288291424,20.8448
1396288351424,20.8991
1396288411424,21.0023
1396288471424,20.8970
1396288531424,20.9794
1396288591424,21.0166
1396288651424,20.9895
1396288711424,20.9066
1396288771424,21.0426
1396288831434,21.0060
1396288891434,21.0237
1396288951434,21.0636
1396289011435,20.9767
1396289071435,20.9575
1396289131435,20.9167
1396289191435,20.9368
1396289251435,20.9265
1396289311435,20.9738
1396289371435,20.9356
1396289431434,20.8911
1396289491434,20.9032
1396289551434,20.8223
1396289611434,20.9476
1396289671434,20.8866
1396289731434,20.8922
1396289791434,20.8731
1396289851434,20.8480